Year,Month,Day,Hour,Minute,Value (Times are PST for temperature in C)
2013,07,21,00,00,16.40
2013,07,21,00,01,16.30
2013,07,21,00,02,16.30
2013,07,21,00,03,16.30
2013,07,21,00,04,16.30
2013,07,21,00,05,16.30
2013,07,21,00,06,16.20
2013,07,21,00,07,16.20
2013,07,21,00,08,16.20
2013,07,21,00,09,16.20
2013,07,21,00,10,16.20
2013,07,21,00,11,16.20
2013,07,21,00,12,16.20
2013,07,21,00,13,16.20
2013,07,21,00,14,16.10
2013,07,21,00,15,16.10
2013,07,21,00,16,16.10
2013,07,21,00,17,16.10
2013,07,21,00,18,16.10
2013,07,21,00,19,16.10
2013,07,21,00,20,16.10
2013,07,21,00,21,16.10
2013,07,21,00,22,16.10
2013,07,21,00,23,16.00
2013,07,21,00,24,16.00
2013,07,21,00,25,16.00
2013,07,21,00,26,16.00
2013,07,21,00,27,15.90
2013,07,21,00,28,15.90
2013,07,21,00,29,15.90
2013,07,21,00,30,15.90
2013,07,21,00,31,15.90
2013,07,21,00,32,15.90
2013,07,21,00,33,15.80
2013,07,21,00,34,15.80
2013,07,21,00,35,15.80
2013,07,21,00,36,15.80
2013,07,21,00,37,15.80
2013,07,21,00,38,15.80
2013,07,21,00,39,15.80
2013,07,21,00,40,15.70
2013,07,21,00,41,15.70
2013,07,21,00,42,15.70
2013,07,21,00,43,15.70
2013,07,21,00,44,15.70
2013,07,21,00,45,15.70
2013,07,21,00,46,15.70
2013,07,21,00,47,15.70
2013,07,21,00,48,15.70
2013,07,21,00,49,15.70
2013,07,21,00,50,15.70
2013,07,21,00,51,15.70
2013,07,21,00,52,15.70
2013,07,21,00,53,15.70
2013,07,21,00,54,15.70
2013,07,21,00,55,15.70
2013,07,21,00,56,15.70
2013,07,21,00,57,15.70
2013,07,21,00,58,15.80
2013,07,21,00,59,15.90
2013,07,21,01,00,15.90
2013,07,21,01,01,16.00
2013,07,21,01,02,16.10
2013,07,21,01,03,16.20
2013,07,21,01,04,16.40
2013,07,21,01,05,16.40
2013,07,21,01,06,16.50
2013,07,21,01,07,16.60
2013,07,21,01,08,16.60
2013,07,21,01,09,16.60
2013,07,21,01,10,16.60
2013,07,21,01,11,16.60
2013,07,21,01,12,16.60
2013,07,21,01,13,16.60
2013,07,21,01,14,16.60
2013,07,21,01,15,16.60
2013,07,21,01,16,16.60
2013,07,21,01,17,16.60
2013,07,21,01,18,16.60
2013,07,21,01,19,16.60
2013,07,21,01,20,16.60
2013,07,21,01,21,16.60
2013,07,21,01,22,16.60
2013,07,21,01,23,16.50
2013,07,21,01,24,16.50
2013,07,21,01,25,16.50
2013,07,21,01,26,16.40
2013,07,21,01,27,16.40
2013,07,21,01,28,16.40
2013,07,21,01,29,16.30
2013,07,21,01,30,16.30
2013,07,21,01,31,16.30
2013,07,21,01,32,16.30
2013,07,21,01,33,16.30
2013,07,21,01,34,16.20
2013,07,21,01,35,16.20
2013,07,21,01,36,16.20
2013,07,21,01,37,16.20
2013,07,21,01,38,16.20
2013,07,21,01,39,16.10
2013,07,21,01,40,16.10
2013,07,21,01,41,16.10
2013,07,21,01,42,16.10
2013,07,21,01,43,16.10
2013,07,21,01,44,16.10
2013,07,21,01,45,16.10
2013,07,21,01,46,16.10
2013,07,21,01,47,16.10
2013,07,21,01,48,16.10
2013,07,21,01,49,16.10
2013,07,21,01,50,16.10
2013,07,21,01,51,16.10
2013,07,21,01,52,16.10
2013,07,21,01,53,16.10
2013,07,21,01,54,16.00
2013,07,21,01,55,16.00
2013,07,21,01,56,16.00
2013,07,21,01,57,16.00
2013,07,21,01,58,16.00
2013,07,21,01,59,16.00
2013,07,21,02,00,15.90
2013,07,21,02,01,15.90
2013,07,21,02,02,15.90
2013,07,21,02,03,15.90
2013,07,21,02,04,15.90
2013,07,21,02,05,15.90
2013,07,21,02,06,15.90
2013,07,21,02,07,15.90
2013,07,21,02,08,15.90
2013,07,21,02,09,15.90
2013,07,21,02,10,15.90
2013,07,21,02,11,15.90
2013,07,21,02,12,15.90
2013,07,21,02,13,15.90
2013,07,21,02,14,15.90
2013,07,21,02,15,15.90
2013,07,21,02,16,15.80
2013,07,21,02,17,15.80
2013,07,21,02,18,15.80
2013,07,21,02,19,15.80
2013,07,21,02,20,15.80
2013,07,21,02,21,15.70
2013,07,21,02,22,15.70
2013,07,21,02,23,15.70
2013,07,21,02,24,15.70
2013,07,21,02,25,15.70
2013,07,21,02,26,15.60
2013,07,21,02,27,15.60
2013,07,21,02,28,15.60
2013,07,21,02,29,15.60
2013,07,21,02,30,15.60
2013,07,21,02,31,15.60
2013,07,21,02,32,15.50
2013,07,21,02,33,15.50
2013,07,21,02,34,15.50
2013,07,21,02,35,15.50
2013,07,21,02,36,15.50
2013,07,21,02,37,15.50
2013,07,21,02,38,15.50
2013,07,21,02,39,15.50
2013,07,21,02,40,15.50
2013,07,21,02,41,15.50
2013,07,21,02,42,15.50
2013,07,21,02,43,15.40
2013,07,21,02,44,15.40
2013,07,21,02,45,15.40
2013,07,21,02,46,15.40
2013,07,21,02,47,15.30
2013,07,21,02,48,15.30
2013,07,21,02,49,15.30
2013,07,21,02,50,15.30
2013,07,21,02,51,15.30
2013,07,21,02,52,15.30
2013,07,21,02,53,15.30
2013,07,21,02,54,15.30
2013,07,21,02,55,15.20
2013,07,21,02,56,15.20
2013,07,21,02,57,15.20
2013,07,21,02,58,15.20
2013,07,21,02,59,15.20
2013,07,21,03,00,15.20
2013,07,21,03,01,15.20
2013,07,21,03,02,15.10
2013,07,21,03,03,15.10
2013,07,21,03,04,15.10
2013,07,21,03,05,15.10
2013,07,21,03,06,15.10
2013,07,21,03,07,15.10
2013,07,21,03,08,15.10
2013,07,21,03,09,15.10
2013,07,21,03,10,15.10
2013,07,21,03,11,15.10
2013,07,21,03,12,15.10
2013,07,21,03,13,15.10
2013,07,21,03,14,15.10
2013,07,21,03,15,15.00
2013,07,21,03,16,15.00
2013,07,21,03,17,15.00
2013,07,21,03,18,15.00
2013,07,21,03,19,15.00
2013,07,21,03,20,15.00
2013,07,21,03,21,15.00
2013,07,21,03,22,15.00
2013,07,21,03,23,14.90
2013,07,21,03,24,14.90
2013,07,21,03,25,14.90
2013,07,21,03,26,14.90
2013,07,21,03,27,14.90
2013,07,21,03,28,14.90
2013,07,21,03,29,14.90
2013,07,21,03,30,14.90
2013,07,21,03,31,14.90
2013,07,21,03,32,14.90
2013,07,21,03,33,14.90
2013,07,21,03,34,14.90
2013,07,21,03,35,14.90
2013,07,21,03,36,14.90
2013,07,21,03,37,14.90
2013,07,21,03,38,14.90
2013,07,21,03,39,14.90
2013,07,21,03,40,14.90
2013,07,21,03,41,14.90
2013,07,21,03,42,14.90
2013,07,21,03,43,14.90
2013,07,21,03,44,14.80
2013,07,21,03,45,14.80
2013,07,21,03,46,14.80
2013,07,21,03,47,14.80
2013,07,21,03,48,14.80
2013,07,21,03,49,14.80
2013,07,21,03,50,14.80
2013,07,21,03,51,14.80
2013,07,21,03,52,14.80
2013,07,21,03,53,14.70
2013,07,21,03,54,14.70
2013,07,21,03,55,14.70
2013,07,21,03,56,14.70
2013,07,21,03,57,14.70
2013,07,21,03,58,14.70
2013,07,21,03,59,14.70
2013,07,21,04,00,14.70
2013,07,21,04,01,14.70
2013,07,21,04,02,14.70
2013,07,21,04,03,14.70
2013,07,21,04,04,14.60
2013,07,21,04,05,14.60
2013,07,21,04,06,14.60
2013,07,21,04,07,14.60
2013,07,21,04,08,14.60
2013,07,21,04,09,14.60
2013,07,21,04,10,14.60
2013,07,21,04,11,14.50
2013,07,21,04,12,14.50
2013,07,21,04,13,14.50
2013,07,21,04,14,14.50
2013,07,21,04,15,14.40
2013,07,21,04,16,14.40
2013,07,21,04,17,14.40
2013,07,21,04,18,14.40
2013,07,21,04,19,14.40
2013,07,21,04,20,14.30
2013,07,21,04,21,14.30
2013,07,21,04,22,14.30
2013,07,21,04,23,14.30
2013,07,21,04,24,14.20
2013,07,21,04,25,14.20
2013,07,21,04,26,14.20
2013,07,21,04,27,14.10
2013,07,21,04,28,14.10
2013,07,21,04,29,14.10
2013,07,21,04,30,14.10
2013,07,21,04,31,14.10
2013,07,21,04,32,14.00
2013,07,21,04,33,14.00
2013,07,21,04,34,13.90
2013,07,21,04,35,13.90
2013,07,21,04,36,13.90
2013,07,21,04,37,13.90
2013,07,21,04,38,13.80
2013,07,21,04,39,13.80
2013,07,21,04,40,13.80
2013,07,21,04,41,13.70
2013,07,21,04,42,13.70
2013,07,21,04,43,13.70
2013,07,21,04,44,13.70
2013,07,21,04,45,13.60
2013,07,21,04,46,13.60
2013,07,21,04,47,13.60
2013,07,21,04,48,13.60
2013,07,21,04,49,13.50
2013,07,21,04,50,13.50
2013,07,21,04,51,13.50
2013,07,21,04,52,13.40
2013,07,21,04,53,13.40
2013,07,21,04,54,13.40
2013,07,21,04,55,13.30
2013,07,21,04,56,13.30
2013,07,21,04,57,13.30
2013,07,21,04,58,13.30
2013,07,21,04,59,13.20
2013,07,21,05,00,13.20
2013,07,21,05,01,13.20
2013,07,21,05,02,13.20
2013,07,21,05,03,13.20
2013,07,21,05,04,13.20
2013,07,21,05,05,13.10
2013,07,21,05,06,13.10
2013,07,21,05,07,13.10
2013,07,21,05,08,13.10
2013,07,21,05,09,13.10
2013,07,21,05,10,13.10
2013,07,21,05,11,13.00
2013,07,21,05,12,13.00
2013,07,21,05,13,13.00
2013,07,21,05,14,13.00
2013,07,21,05,15,13.00
2013,07,21,05,16,13.00
2013,07,21,05,17,12.90
2013,07,21,05,18,12.90
2013,07,21,05,19,12.90
2013,07,21,05,20,12.90
2013,07,21,05,21,12.80
2013,07,21,05,22,12.80
2013,07,21,05,23,12.80
2013,07,21,05,24,12.80
2013,07,21,05,25,12.80
2013,07,21,05,26,12.80
2013,07,21,05,27,12.80
2013,07,21,05,28,12.80
2013,07,21,05,29,12.70
2013,07,21,05,30,12.70
2013,07,21,05,31,12.70
2013,07,21,05,32,12.70
2013,07,21,05,33,12.70
2013,07,21,05,34,12.70
2013,07,21,05,35,12.70
2013,07,21,05,36,12.70
2013,07,21,05,37,12.60
2013,07,21,05,38,12.60
2013,07,21,05,39,12.60
2013,07,21,05,40,12.60
2013,07,21,05,41,12.60
2013,07,21,05,42,12.60
2013,07,21,05,43,12.50
2013,07,21,05,44,12.50
2013,07,21,05,45,12.50
2013,07,21,05,46,12.50
2013,07,21,05,47,12.50
2013,07,21,05,48,12.50
2013,07,21,05,49,12.40
2013,07,21,05,50,12.40
2013,07,21,05,51,12.40
2013,07,21,05,52,12.40
2013,07,21,05,53,12.40
2013,07,21,05,54,12.40
2013,07,21,05,55,12.40
2013,07,21,05,56,12.40
2013,07,21,05,57,12.40
2013,07,21,05,58,12.40
2013,07,21,05,59,12.40
2013,07,21,06,00,12.40
2013,07,21,06,01,12.40
2013,07,21,06,02,12.40
2013,07,21,06,03,12.40
2013,07,21,06,04,12.40
2013,07,21,06,05,12.40
2013,07,21,06,06,12.40
2013,07,21,06,07,12.40
2013,07,21,06,08,12.40
2013,07,21,06,09,12.40
2013,07,21,06,10,12.40
2013,07,21,06,11,12.30
2013,07,21,06,12,12.40
2013,07,21,06,13,12.30
2013,07,21,06,14,12.30
2013,07,21,06,15,12.30
2013,07,21,06,16,12.30
2013,07,21,06,17,12.30
2013,07,21,06,18,12.30
2013,07,21,06,19,12.30
2013,07,21,06,20,12.30
2013,07,21,06,21,12.30
2013,07,21,06,22,12.30
2013,07,21,06,23,12.30
2013,07,21,06,24,12.30
2013,07,21,06,25,12.30
2013,07,21,06,26,12.30
2013,07,21,06,27,12.30
2013,07,21,06,28,12.30
2013,07,21,06,29,12.30
2013,07,21,06,30,12.30
2013,07,21,06,31,12.30
2013,07,21,06,32,12.30
2013,07,21,06,33,12.30
2013,07,21,06,34,12.30
2013,07,21,06,35,12.30
2013,07,21,06,36,12.30
2013,07,21,06,37,12.30
2013,07,21,06,38,12.30
2013,07,21,06,39,12.30
2013,07,21,06,40,12.30
2013,07,21,06,41,12.30
2013,07,21,06,42,12.30
2013,07,21,06,43,12.30
2013,07,21,06,44,12.30
2013,07,21,06,45,12.30
2013,07,21,06,46,12.30
2013,07,21,06,47,12.30
2013,07,21,06,48,12.30
2013,07,21,06,49,12.30
2013,07,21,06,50,12.30
2013,07,21,06,51,12.30
2013,07,21,06,52,12.30
2013,07,21,06,53,12.30
2013,07,21,06,54,12.30
2013,07,21,06,55,12.30
2013,07,21,06,56,12.30
2013,07,21,06,57,12.30
2013,07,21,06,58,12.40
2013,07,21,06,59,12.40
2013,07,21,07,00,12.40
2013,07,21,07,01,12.40
2013,07,21,07,02,12.40
2013,07,21,07,03,12.50
2013,07,21,07,04,12.50
2013,07,21,07,05,12.50
2013,07,21,07,06,12.60
2013,07,21,07,07,12.60
2013,07,21,07,08,12.70
2013,07,21,07,09,12.70
2013,07,21,07,10,12.80
2013,07,21,07,11,12.90
2013,07,21,07,12,12.90
2013,07,21,07,13,13.00
2013,07,21,07,14,13.10
2013,07,21,07,15,13.20
2013,07,21,07,16,13.20
2013,07,21,07,17,13.30
2013,07,21,07,18,13.40
2013,07,21,07,19,13.40
2013,07,21,07,20,13.50
2013,07,21,07,21,13.60
2013,07,21,07,22,13.60
2013,07,21,07,23,13.70
2013,07,21,07,24,13.70
2013,07,21,07,25,13.80
2013,07,21,07,26,13.80
2013,07,21,07,27,13.90
2013,07,21,07,28,13.90
2013,07,21,07,29,13.90
2013,07,21,07,30,14.00
2013,07,21,07,31,14.00
2013,07,21,07,32,14.10
2013,07,21,07,33,14.10
2013,07,21,07,34,14.20
2013,07,21,07,35,14.30
2013,07,21,07,36,14.30
2013,07,21,07,37,14.40
2013,07,21,07,38,14.50
2013,07,21,07,39,14.60
2013,07,21,07,40,14.70
2013,07,21,07,41,14.70
2013,07,21,07,42,14.80
2013,07,21,07,43,14.90
2013,07,21,07,44,14.90
2013,07,21,07,45,15.00
2013,07,21,07,46,15.10
2013,07,21,07,47,15.20
2013,07,21,07,48,15.30
2013,07,21,07,49,15.40
2013,07,21,07,50,15.50
2013,07,21,07,51,15.60
2013,07,21,07,52,15.70
2013,07,21,07,53,15.80
2013,07,21,07,54,15.90
2013,07,21,07,55,16.00
2013,07,21,07,56,16.10
2013,07,21,07,57,16.10
2013,07,21,07,58,16.20
2013,07,21,07,59,16.20
2013,07,21,08,00,16.30
2013,07,21,08,01,16.30
2013,07,21,08,02,16.30
2013,07,21,08,03,16.30
2013,07,21,08,04,16.30
2013,07,21,08,05,16.30
2013,07,21,08,06,16.40
2013,07,21,08,07,16.50
2013,07,21,08,08,16.50
2013,07,21,08,09,16.40
2013,07,21,08,10,16.40
2013,07,21,08,11,16.40
2013,07,21,08,12,16.40
2013,07,21,08,13,16.40
2013,07,21,08,14,16.50
2013,07,21,08,15,16.50
2013,07,21,08,16,16.50
2013,07,21,08,17,16.60
2013,07,21,08,18,16.60
2013,07,21,08,19,16.60
2013,07,21,08,20,16.50
2013,07,21,08,21,16.50
2013,07,21,08,22,16.40
2013,07,21,08,23,16.40
2013,07,21,08,24,16.40
2013,07,21,08,25,16.40
2013,07,21,08,26,16.40
2013,07,21,08,27,16.40
2013,07,21,08,28,16.40
2013,07,21,08,29,16.40
2013,07,21,08,30,16.40
2013,07,21,08,31,16.30
2013,07,21,08,32,16.30
2013,07,21,08,33,16.30
2013,07,21,08,34,16.30
2013,07,21,08,35,16.40
2013,07,21,08,36,16.40
2013,07,21,08,37,16.40
2013,07,21,08,38,16.40
2013,07,21,08,39,16.40
2013,07,21,08,40,16.40
2013,07,21,08,41,16.40
2013,07,21,08,42,16.40
2013,07,21,08,43,16.40
2013,07,21,08,44,16.40
2013,07,21,08,45,16.50
2013,07,21,08,46,16.50
2013,07,21,08,47,16.50
2013,07,21,08,48,16.60
2013,07,21,08,49,16.60
2013,07,21,08,50,16.60
2013,07,21,08,51,16.60
2013,07,21,08,52,16.60
2013,07,21,08,53,16.60
2013,07,21,08,54,16.60
2013,07,21,08,55,16.60
2013,07,21,08,56,16.60
2013,07,21,08,57,16.60
2013,07,21,08,58,16.60
2013,07,21,08,59,16.60
2013,07,21,09,00,16.60
2013,07,21,09,01,16.60
2013,07,21,09,02,16.60
2013,07,21,09,03,16.60
2013,07,21,09,04,16.70
2013,07,21,09,05,16.70
2013,07,21,09,06,16.70
2013,07,21,09,07,16.70
2013,07,21,09,08,16.80
2013,07,21,09,09,16.80
2013,07,21,09,10,16.80
2013,07,21,09,11,16.80
2013,07,21,09,12,16.80
2013,07,21,09,13,16.70
2013,07,21,09,14,16.70
2013,07,21,09,15,16.70
2013,07,21,09,16,16.70
2013,07,21,09,17,16.70
2013,07,21,09,18,16.70
2013,07,21,09,19,16.70
2013,07,21,09,20,16.70
2013,07,21,09,21,16.70
2013,07,21,09,22,16.70
2013,07,21,09,23,16.80
2013,07,21,09,24,16.90
2013,07,21,09,25,16.90
2013,07,21,09,26,17.00
2013,07,21,09,27,17.10
2013,07,21,09,28,17.20
2013,07,21,09,29,17.20
2013,07,21,09,30,17.30
2013,07,21,09,31,17.30
2013,07,21,09,32,17.30
2013,07,21,09,33,17.30
2013,07,21,09,34,17.40
2013,07,21,09,35,17.40
2013,07,21,09,36,17.30
2013,07,21,09,37,17.20
2013,07,21,09,38,17.20
2013,07,21,09,39,17.20
2013,07,21,09,40,17.20
2013,07,21,09,41,17.20
2013,07,21,09,42,17.30
2013,07,21,09,43,17.30
2013,07,21,09,44,17.30
2013,07,21,09,45,17.30
2013,07,21,09,46,17.30
2013,07,21,09,47,17.30
2013,07,21,09,48,17.30
2013,07,21,09,49,17.40
2013,07,21,09,50,17.40
2013,07,21,09,51,17.50
2013,07,21,09,52,17.60
2013,07,21,09,53,17.60
2013,07,21,09,54,17.70
2013,07,21,09,55,17.70
2013,07,21,09,56,17.80
2013,07,21,09,57,17.90
2013,07,21,09,58,17.90
2013,07,21,09,59,17.80
2013,07,21,10,00,17.80
2013,07,21,10,01,17.80
2013,07,21,10,02,17.80
2013,07,21,10,03,17.80
2013,07,21,10,04,17.90
2013,07,21,10,05,17.90
2013,07,21,10,06,17.90
2013,07,21,10,07,17.90
2013,07,21,10,08,17.90
2013,07,21,10,09,18.00
2013,07,21,10,10,18.00
2013,07,21,10,11,18.10
2013,07,21,10,12,18.20
2013,07,21,10,13,18.20
2013,07,21,10,14,18.30
2013,07,21,10,15,18.30
2013,07,21,10,16,18.40
2013,07,21,10,17,18.40
2013,07,21,10,18,18.40
2013,07,21,10,19,18.40
2013,07,21,10,20,18.50
2013,07,21,10,21,18.60
2013,07,21,10,22,18.70
2013,07,21,10,23,18.70
2013,07,21,10,24,18.70
2013,07,21,10,25,18.70
2013,07,21,10,26,18.80
2013,07,21,10,27,18.80
2013,07,21,10,28,18.80
2013,07,21,10,29,18.80
2013,07,21,10,30,18.90
2013,07,21,10,31,18.90
2013,07,21,10,32,19.00
2013,07,21,10,33,19.10
2013,07,21,10,34,19.20
2013,07,21,10,35,19.20
2013,07,21,10,36,19.10
2013,07,21,10,37,19.00
2013,07,21,10,38,19.00
2013,07,21,10,39,18.90
2013,07,21,10,40,18.80
2013,07,21,10,41,18.80
2013,07,21,10,42,18.80
2013,07,21,10,43,18.90
2013,07,21,10,44,19.00
2013,07,21,10,45,19.20
2013,07,21,10,46,19.40
2013,07,21,10,47,19.60
2013,07,21,10,48,19.70
2013,07,21,10,49,19.80
2013,07,21,10,50,19.90
2013,07,21,10,51,20.00
2013,07,21,10,52,20.00
2013,07,21,10,53,20.00
2013,07,21,10,54,19.90
2013,07,21,10,55,19.90
2013,07,21,10,56,19.90
2013,07,21,10,57,19.90
2013,07,21,10,58,19.90
2013,07,21,10,59,19.90
2013,07,21,11,00,19.90
2013,07,21,11,01,19.90
2013,07,21,11,02,19.80
2013,07,21,11,03,19.80
2013,07,21,11,04,19.90
2013,07,21,11,05,19.90
2013,07,21,11,06,19.90
2013,07,21,11,07,19.90
2013,07,21,11,08,19.80
2013,07,21,11,09,19.80
2013,07,21,11,10,19.90
2013,07,21,11,11,19.90
2013,07,21,11,12,19.90
2013,07,21,11,13,19.90
2013,07,21,11,14,19.90
2013,07,21,11,15,19.90
2013,07,21,11,16,19.90
2013,07,21,11,17,19.90
2013,07,21,11,18,19.90
2013,07,21,11,19,20.00
2013,07,21,11,20,20.00
2013,07,21,11,21,20.20
2013,07,21,11,22,20.30
2013,07,21,11,23,20.40
2013,07,21,11,24,20.50
2013,07,21,11,25,20.60
2013,07,21,11,26,20.60
2013,07,21,11,27,20.70
2013,07,21,11,28,20.80
2013,07,21,11,29,20.80
2013,07,21,11,30,20.80
2013,07,21,11,31,20.80
2013,07,21,11,32,20.80
2013,07,21,11,33,20.80
2013,07,21,11,34,20.80
2013,07,21,11,35,20.80
2013,07,21,11,36,20.80
2013,07,21,11,37,20.80
2013,07,21,11,38,20.90
2013,07,21,11,39,21.00
2013,07,21,11,40,21.10
2013,07,21,11,41,21.10
2013,07,21,11,42,21.10
2013,07,21,11,43,21.10
2013,07,21,11,44,21.10
2013,07,21,11,45,21.10
2013,07,21,11,46,21.10
2013,07,21,11,47,21.20
2013,07,21,11,48,21.20
2013,07,21,11,49,21.20
2013,07,21,11,50,21.30
2013,07,21,11,51,21.30
2013,07,21,11,52,21.30
2013,07,21,11,53,21.40
2013,07,21,11,54,21.40
2013,07,21,11,55,21.50
2013,07,21,11,56,21.50
2013,07,21,11,57,21.60
2013,07,21,11,58,21.60
2013,07,21,11,59,21.70
2013,07,21,12,00,21.80
2013,07,21,12,01,21.80
2013,07,21,12,02,21.80
2013,07,21,12,03,21.80
2013,07,21,12,04,21.90
2013,07,21,12,05,21.90
2013,07,21,12,06,21.90
2013,07,21,12,07,22.00
2013,07,21,12,08,21.90
2013,07,21,12,09,21.90
2013,07,21,12,10,22.00
2013,07,21,12,11,22.10
2013,07,21,12,12,22.20
2013,07,21,12,13,22.30
2013,07,21,12,14,22.30
2013,07,21,12,15,22.30
2013,07,21,12,16,22.40
2013,07,21,12,17,22.50
2013,07,21,12,18,22.50
2013,07,21,12,19,22.60
2013,07,21,12,20,22.60
2013,07,21,12,21,22.60
2013,07,21,12,22,22.70
2013,07,21,12,23,22.70
2013,07,21,12,24,22.80
2013,07,21,12,25,22.80
2013,07,21,12,26,22.90
2013,07,21,12,27,23.00
2013,07,21,12,28,23.10
2013,07,21,12,29,23.10
2013,07,21,12,30,23.10
2013,07,21,12,31,23.20
2013,07,21,12,32,23.20
2013,07,21,12,33,23.30
2013,07,21,12,34,23.40
2013,07,21,12,35,23.50
2013,07,21,12,36,23.60
2013,07,21,12,37,23.80
2013,07,21,12,38,23.90
2013,07,21,12,39,24.00
2013,07,21,12,40,24.10
2013,07,21,12,41,24.10
2013,07,21,12,42,24.20
2013,07,21,12,43,24.20
2013,07,21,12,44,24.20
2013,07,21,12,45,24.20
2013,07,21,12,46,24.20
2013,07,21,12,47,24.20
2013,07,21,12,48,24.20
2013,07,21,12,49,24.30
2013,07,21,12,50,24.50
2013,07,21,12,51,24.60
2013,07,21,12,52,24.80
2013,07,21,12,53,24.80
2013,07,21,12,54,24.80
2013,07,21,12,55,24.80
2013,07,21,12,56,24.80
2013,07,21,12,57,24.70
2013,07,21,12,58,24.60
2013,07,21,12,59,24.60
2013,07,21,13,00,24.60
2013,07,21,13,01,24.60
2013,07,21,13,02,24.60
2013,07,21,13,03,24.70
2013,07,21,13,04,24.70
2013,07,21,13,05,24.80
2013,07,21,13,06,24.90
2013,07,21,13,07,25.00
2013,07,21,13,08,25.10
2013,07,21,13,09,25.10
2013,07,21,13,10,25.00
2013,07,21,13,11,25.00
2013,07,21,13,12,24.90
2013,07,21,13,13,24.90
2013,07,21,13,14,24.80
2013,07,21,13,15,24.90
2013,07,21,13,16,25.00
2013,07,21,13,17,25.10
2013,07,21,13,18,25.20
2013,07,21,13,19,25.20
2013,07,21,13,20,25.20
2013,07,21,13,21,25.30
2013,07,21,13,22,25.40
2013,07,21,13,23,25.50
2013,07,21,13,24,25.50
2013,07,21,13,25,25.50
2013,07,21,13,26,25.40
2013,07,21,13,27,25.40
2013,07,21,13,28,25.40
2013,07,21,13,29,25.50
2013,07,21,13,30,25.50
2013,07,21,13,31,25.70
2013,07,21,13,32,25.80
2013,07,21,13,33,25.90
2013,07,21,13,34,26.00
2013,07,21,13,35,26.00
2013,07,21,13,36,26.10
2013,07,21,13,37,26.20
2013,07,21,13,38,26.30
2013,07,21,13,39,26.30
2013,07,21,13,40,26.40
2013,07,21,13,41,26.40
2013,07,21,13,42,26.40
2013,07,21,13,43,26.30
2013,07,21,13,44,26.20
2013,07,21,13,45,26.20
2013,07,21,13,46,26.20
2013,07,21,13,47,26.20
2013,07,21,13,48,26.20
2013,07,21,13,49,26.20
2013,07,21,13,50,26.30
2013,07,21,13,51,26.20
2013,07,21,13,52,26.10
2013,07,21,13,53,26.10
2013,07,21,13,54,26.00
2013,07,21,13,55,26.00
2013,07,21,13,56,26.00
2013,07,21,13,57,25.90
2013,07,21,13,58,25.80
2013,07,21,13,59,25.70
2013,07,21,14,00,25.60
2013,07,21,14,01,25.40
2013,07,21,14,02,25.40
2013,07,21,14,03,25.40
2013,07,21,14,04,25.40
2013,07,21,14,05,25.40
2013,07,21,14,06,25.30
2013,07,21,14,07,25.30
2013,07,21,14,08,25.40
2013,07,21,14,09,25.40
2013,07,21,14,10,25.40
2013,07,21,14,11,25.30
2013,07,21,14,12,25.30
2013,07,21,14,13,25.40
2013,07,21,14,14,25.40
2013,07,21,14,15,25.40
2013,07,21,14,16,25.40
2013,07,21,14,17,25.40
2013,07,21,14,18,25.40
2013,07,21,14,19,25.40
2013,07,21,14,20,25.50
2013,07,21,14,21,25.60
2013,07,21,14,22,25.60
2013,07,21,14,23,25.60
2013,07,21,14,24,25.60
2013,07,21,14,25,25.60
2013,07,21,14,26,25.60
2013,07,21,14,27,25.60
2013,07,21,14,28,25.50
2013,07,21,14,29,25.50
2013,07,21,14,30,25.60
2013,07,21,14,31,25.60
2013,07,21,14,32,25.60
2013,07,21,14,33,25.70
2013,07,21,14,34,25.80
2013,07,21,14,35,25.90
2013,07,21,14,36,25.90
2013,07,21,14,37,25.90
2013,07,21,14,38,25.90
2013,07,21,14,39,25.90
2013,07,21,14,40,25.90
2013,07,21,14,41,26.00
2013,07,21,14,42,26.00
2013,07,21,14,43,26.00
2013,07,21,14,44,26.00
2013,07,21,14,45,25.90
2013,07,21,14,46,25.90
2013,07,21,14,47,25.80
2013,07,21,14,48,25.80
2013,07,21,14,49,25.80
2013,07,21,14,50,25.80
2013,07,21,14,51,25.80
2013,07,21,14,52,25.80
2013,07,21,14,53,25.80
2013,07,21,14,54,25.80
2013,07,21,14,55,25.90
2013,07,21,14,56,25.90
2013,07,21,14,57,25.90
2013,07,21,14,58,25.90
2013,07,21,14,59,26.00
2013,07,21,15,00,26.10
2013,07,21,15,01,26.10
2013,07,21,15,02,26.20
2013,07,21,15,03,26.20
2013,07,21,15,04,26.20
2013,07,21,15,05,26.10
2013,07,21,15,06,26.10
2013,07,21,15,07,26.20
2013,07,21,15,08,26.20
2013,07,21,15,09,26.20
2013,07,21,15,10,26.20
2013,07,21,15,11,26.20
2013,07,21,15,12,26.20
2013,07,21,15,13,26.30
2013,07,21,15,14,26.30
2013,07,21,15,15,26.40
2013,07,21,15,16,26.40
2013,07,21,15,17,26.40
2013,07,21,15,18,26.40
2013,07,21,15,19,26.40
2013,07,21,15,20,26.30
2013,07,21,15,21,26.30
2013,07,21,15,22,26.30
2013,07,21,15,23,26.30
2013,07,21,15,24,26.30
2013,07,21,15,25,26.30
2013,07,21,15,26,26.40
2013,07,21,15,27,26.40
2013,07,21,15,28,26.40
2013,07,21,15,29,26.30
2013,07,21,15,30,26.30
2013,07,21,15,31,26.30
2013,07,21,15,32,26.30
2013,07,21,15,33,26.30
2013,07,21,15,34,26.20
2013,07,21,15,35,26.20
2013,07,21,15,36,26.20
2013,07,21,15,37,26.20
2013,07,21,15,38,26.10
2013,07,21,15,39,26.10
2013,07,21,15,40,26.10
2013,07,21,15,41,26.20
2013,07,21,15,42,26.20
2013,07,21,15,43,26.20
2013,07,21,15,44,26.20
2013,07,21,15,45,26.20
2013,07,21,15,46,26.20
2013,07,21,15,47,26.10
2013,07,21,15,48,26.10
2013,07,21,15,49,26.10
2013,07,21,15,50,26.10
2013,07,21,15,51,26.10
2013,07,21,15,52,26.10
2013,07,21,15,53,26.10
2013,07,21,15,54,26.10
2013,07,21,15,55,26.10
2013,07,21,15,56,26.20
2013,07,21,15,57,26.20
2013,07,21,15,58,26.20
2013,07,21,15,59,26.10
2013,07,21,16,00,26.10
2013,07,21,16,01,26.20
2013,07,21,16,02,26.10
2013,07,21,16,03,26.10
2013,07,21,16,04,26.10
2013,07,21,16,05,26.10
2013,07,21,16,06,26.20
2013,07,21,16,07,26.20
2013,07,21,16,08,26.10
2013,07,21,16,09,26.10
2013,07,21,16,10,26.10
2013,07,21,16,11,26.10
2013,07,21,16,12,26.10
2013,07,21,16,13,26.10
2013,07,21,16,14,26.20
2013,07,21,16,15,26.20
2013,07,21,16,16,26.20
2013,07,21,16,17,26.20
2013,07,21,16,18,26.20
2013,07,21,16,19,26.30
2013,07,21,16,20,26.30
2013,07,21,16,21,26.30
2013,07,21,16,22,26.20
2013,07,21,16,23,26.10
2013,07,21,16,24,26.10
2013,07,21,16,25,26.10
2013,07,21,16,26,26.10
2013,07,21,16,27,26.10
2013,07,21,16,28,26.10
2013,07,21,16,29,26.00
2013,07,21,16,30,26.00
2013,07,21,16,31,26.00
2013,07,21,16,32,26.00
2013,07,21,16,33,26.00
2013,07,21,16,34,26.00
2013,07,21,16,35,26.10
2013,07,21,16,36,26.20
2013,07,21,16,37,26.20
2013,07,21,16,38,26.20
2013,07,21,16,39,26.20
2013,07,21,16,40,26.30
2013,07,21,16,41,26.30
2013,07,21,16,42,26.30
2013,07,21,16,43,26.40
2013,07,21,16,44,26.30
2013,07,21,16,45,26.30
2013,07,21,16,46,26.30
2013,07,21,16,47,26.30
2013,07,21,16,48,26.30
2013,07,21,16,49,26.30
2013,07,21,16,50,26.30
2013,07,21,16,51,26.30
2013,07,21,16,52,26.30
2013,07,21,16,53,26.30
2013,07,21,16,54,26.40
2013,07,21,16,55,26.40
2013,07,21,16,56,26.40
2013,07,21,16,57,26.30
2013,07,21,16,58,26.30
2013,07,21,16,59,26.30
2013,07,21,17,00,26.30
2013,07,21,17,01,26.30
2013,07,21,17,02,26.40
2013,07,21,17,03,26.50
2013,07,21,17,04,26.50
2013,07,21,17,05,26.50
2013,07,21,17,06,26.40
2013,07,21,17,07,26.40
2013,07,21,17,08,26.40
2013,07,21,17,09,26.40
2013,07,21,17,10,26.40
2013,07,21,17,11,26.30
2013,07,21,17,12,26.30
2013,07,21,17,13,26.20
2013,07,21,17,14,26.10
2013,07,21,17,15,26.10
2013,07,21,17,16,26.10
2013,07,21,17,17,26.20
2013,07,21,17,18,26.20
2013,07,21,17,19,26.20